RH
5 5 6 7 9 9 8 7 8 7 8 10 9 8 8 9 10 14 18 19 23 39 57 61 56 51 53 50 36 32 47 57 67 85 89 82 90 98 98 99 100 99
6 6 6 7 7 8 7 7 7 8 9 11 9 8 8 9 11 16 19 20 27 48 67 67 57 52 52 49 37 31 41 53 66 78 77 79 95 101 98 100 100 98
6 6 6 7 7 7 7 7 7 8 11 12 9 8 9 9 13 18 20 20 28 52 72 67 57 55 49 42 39 37 39 50 65 69 62 72 94 101 99 100 99 98
7 7 7 8 7 7 8 8 8 10 12 12 9 9 10 12 15 19 19 20 28 52 71 64 55 55 47 37 40 44 45 52 64 66 59 68 88 98 101 100 99 100
7 7 8 8 8 8 8 8 9 11 13 11 10 11 12 15 18 18 18 19 28 52 72 64 52 54 51 42 45 52 56 59 65 67 60 61 79 96 101 100 100 101
8 9 9 9 8 8 8 8 10 13 14 12 11 12 14 16 18 18 17 18 28 53 74 67 50 51 53 52 57 61 61 61 63 65 62 60 74 92 99 99 100 101
10 9 9 9 8 8 8 9 12 14 14 13 12 13 15 17 18 19 17 17 26 51 76 72 53 49 54 58 65 66 61 58 59 62 63 61 71 85 91 92 96 98
11 9 9 10 9 9 9 10 13 15 14 15 14 13 14 16 19 20 18 16 21 44 74 79 60 53 59 62 65 66 61 56 55 61 66 65 70 79 80 81 87 94
12 9 9 10 9 9 10 11 14 15 15 16 15 14 15 16 18 20 19 16 17 33 67 83 66 55 63 69 69 70 68 63 58 61 67 69 72 77 77 77 82 90
12 9 9 9 9 10 10 12 14 15 17 19 17 16 15 15 17 19 19 17 15 23 55 81 74 56 59 70 75 75 73 70 66 62 65 70 75 78 79 79 83 92
12 9 9 9 9 10 11 13 14 16 20 21 19 18 17 16 16 17 18 18 15 18 40 72 81 66 56 60 65 68 65 63 66 67 66 72 78 81 82 84 86 91
12 9 9 9 10 11 12 14 14 17 22 23 21 20 17 16 15 15 17 17 15 16 28 57 80 80 67 59 58 66 71 69 69 71 72 76 82 85 88 89 89 87
11 9 10 10 11 12 14 15 15 20 25 24 22 21 18 17 16 14 16 16 15 15 21 41 67 80 79 71 65 70 76 74 71 73 77 83 88 90 91 90 88 88
11 10 10 11 12 14 15 16 17 23 27 25 21 21 19 18 16 14 14 15 15 15 17 29 49 68 81 81 77 77 78 77 78 78 80 86 90 91 91 90 89 89
11 11 11 12 13 15 16 17 20 26 28 24 21 20 20 19 16 13 13 14 14 13 16 23 34 53 74 82 81 85 87 86 86 83 80 84 90 90 89 91 95 95
13 12 13 13 15 16 17 20 25 30 29 24 20 20 21 19 16 13 12 13 13 12 14 20 25 36 60 80 87 91 95 94 89 85 83 87 92 92 89 92 95 96
15 14 15 16 17 18 21 25 31 33 29 24 20 19 21 20 16 13 13 12 12 12 12 17 22 25 44 76 95 97 96 94 91 88 89 93 93 90 92 95 93 91
17 18 19 19 20 23 27 32 36 34 28 24 20 19 22 21 16 14 14 12 13 13 12 16 21 21 34 66 91 98 97 95 93 90 89 93 95 93 95 98 96 94
23 24 25 26 28 31 34 37 36 32 28 23 20 20 23 23 18 15 15 15 14 14 14 17 19 24 45 69 82 92 101 101 97 94 92 94 97 99 99 99 99 100
30 31 32 33 35 37 38 37 33 30 26 23 20 21 24 24 20 18 19 18 18 16 16 18 18 26 50 68 71 80 95 100 97 96 96 97 98 99 101 99 96 97
36 37 38 39 39 38 37 35 32 29 25 23 21 21 26 26 23 22 23 22 21 20 18 18 18 19 31 52 69 77 84 92 98 100 98 99 100 100 100 99 95 94
40 42 43 44 43 42 40 37 33 29 25 23 22 23 28 30 27 25 26 25 23 23 21 18 18 16 23 52 78 76 62 63 78 95 100 99 99 101 100 100 98 96
42 42 44 46 47 46 42 38 35 33 32 30 27 27 29 31 30 28 27 27 25 25 24 21 19 15 21 46 67 60 45 41 51 76 98 102 99 100 101 100 99 97
44 43 44 46 47 45 43 43 44 44 44 40 34 31 31 32 32 30 29 29 27 26 25 23 22 18 17 29 39 35 35 38 40 53 81 98 101 100 99 100 99 98
45 44 45 45 45 47 50 52 52 50 48 44 38 34 34 34 34 33 32 31 29 27 26 24 23 21 18 20 24 23 28 38 40 42 55 77 94 101 100 98 98 99
48 47 48 47 49 53 55 55 52 48 47 45 41 39 38 37 37 36 35 34 31 29 28 27 24 22 20 19 21 22 25 32 39 42 44 54 73 89 97 99 99 99
Wind_Speed
27 27 26 26 26 26 26 26 27 28 29 30 30 31 31 32 33 34 34 35 36 37 36 33 31 32 32 28 27 27 26 27 27 26 25 24 22 21 22 25 28 26
27 27 27 27 27 27 27 27 27 28 29 29 30 30 30 31 32 33 34 35 37 38 35 31 30 30 28 25 24 25 25 25 26 26 25 22 21 20 21 25 28 28
27 27 27 27 27 27 27 27 28 28 29 29 29 29 30 30 31 33 34 35 36 36 34 30 28 27 24 22 22 23 24 24 25 25 23 21 21 20 20 23 26 29
27 27 27 27 27 27 28 28 28 28 29 29 29 29 29 30 31 32 33 34 35 35 32 28 26 23 21 20 21 21 22 23 24 23 22 21 21 20 21 22 24 25
28 28 27 27 27 28 28 28 28 28 28 28 28 28 28 29 30 31 33 33 34 35 31 26 23 20 18 18 19 18 18 20 22 22 22 22 21 20 20 22 23 23
28 28 28 28 28 28 28 28 28 28 28 27 27 27 27 28 30 31 32 33 34 34 30 24 20 18 17 16 16 15 15 17 20 22 23 23 21 20 19 20 22 22
29 29 29 28 28 28 28 28 28 27 27 26 26 26 27 27 29 30 32 33 33 33 29 22 18 16 14 13 13 12 13 16 19 22 23 22 21 20 19 19 20 21
30 30 29 29 28 28 28 27 27 27 26 25 25 26 27 27 28 29 31 31 31 31 29 22 17 15 13 11 10 10 11 13 17 20 21 21 21 21 20 19 20 21
31 31 30 29 28 28 27 27 27 26 25 24 25 26 27 27 27 28 29 30 30 29 28 21 16 13 12 9 7 7 8 10 14 18 20 21 21 21 20 20 20 21
31 31 30 29 28 28 27 27 27 25 24 24 25 26 27 26 26 26 27 29 29 28 26 21 15 12 11 8 7 7 9 11 14 17 19 20 20 20 20 20 20 20
32 31 30 29 28 27 27 27 27 25 23 23 24 25 26 26 26 26 26 27 28 27 26 22 17 13 12 11 11 12 13 13 14 16 19 20 21 21 20 19 19 19
32 31 30 29 28 27 27 27 26 24 22 23 24 25 26 26 26 25 25 25 27 26 25 23 19 15 13 14 15 16 16 15 15 15 18 20 21 21 20 19 20 21
32 31 30 28 27 26 26 26 25 23 22 22 23 24 25 25 25 25 23 23 25 25 24 23 20 16 15 15 16 17 17 16 17 17 18 19 19 19 19 20 20 21
31 30 29 28 27 26 26 25 24 23 22 21 22 23 24 24 25 24 23 22 23 24 24 23 22 19 16 15 15 16 16 16 17 18 18 18 18 19 19 19 19 20
30 29 29 28 27 26 25 24 23 23 22 22 22 23 23 23 24 24 22 21 22 23 23 22 22 21 18 16 15 15 16 16 17 18 18 18 18 18 17 17 18 19
30 29 28 28 27 26 25 24 23 23 23 22 22 22 23 23 23 23 22 21 21 21 22 21 21 21 19 16 15 14 15 16 17 18 17 18 18 18 17 17 18 19
29 28 28 27 26 25 24 23 22 22 22 23 23 23 23 22 22 22 21 20 19 20 21 21 20 20 19 16 14 14 14 15 17 18 18 18 19 19 18 19 19 20
28 27 27 26 26 25 23 22 22 22 23 23 23 23 23 22 21 21 20 18 18 19 20 20 20 20 19 16 14 14 15 16 17 18 19 19 19 19 18 18 19 20
27 26 25 25 25 24 23 23 22 23 23 23 23 22 22 21 20 20 19 18 17 18 19 20 20 20 17 14 14 15 15 15 16 17 19 19 19 19 18 18 18 18
26 26 25 24 24 24 23 23 23 23 23 23 23 22 21 21 19 19 19 18 17 18 18 19 20 19 17 15 15 14 14 14 14 14 16 18 19 19 19 18 18 18
26 25 25 25 24 24 24 24 24 24 24 23 23 22 22 21 19 19 19 19 19 18 19 19 20 20 19 17 14 13 14 15 14 13 12 14 16 18 18 18 19 19
26 26 25 25 25 25 25 25 25 25 24 23 22 21 21 21 20 19 20 20 20 20 20 20 20 20 19 15 12 13 15 17 16 13 13 13 14 15 16 16 17 18
26 26 26 26 26 26 26 26 26 25 24 23 22 21 21 21 21 20 20 21 21 21 21 21 21 20 18 15 14 15 16 16 16 14 15 15 14 14 14 15 16 16
26 26 26 26 26 26 26 26 25 25 24 22 21 21 21 22 22 21 21 21 22 22 22 21 21 20 18 16 15 15 16 16 15 14 14 14 15 15 15 14 15 15
25 25 25 25 25 25 24 24 24 23 23 22 22 21 22 22 22 21 21 21 21 22 22 21 20 19 18 17 17 16 15 15 14 13 13 12 13 15 15 15 16 16
24 24 24 24 24 24 24 24 23 23 22 22 22 22 22 22 21 20 20 20 20 20 21 21 20 18 17 17 17 17 15 14 13 13 12 12 12 13 15 17 18 18
Wind_Direction
289 288 288 288 289 291 293 297 299 301 304 308 312 315 317 318 318 319 321 321 320 316 312 306 300 294 289 282 276 272 268 261 257 254 254 259 259 247 235 225 218 218
288 287 288 288 289 291 293 296 299 301 305 309 313 315 317 318 319 321 323 323 321 319 315 309 301 294 287 280 273 269 264 257 251 250 250 254 255 246 235 225 216 214
287 287 287 288 289 291 293 296 299 302 305 310 314 316 318 321 322 323 324 324 323 322 319 315 306 294 284 277 269 263 260 253 247 246 246 250 253 245 236 229 219 212
288 287 288 289 291 292 295 297 300 303 307 312 316 319 321 324 325 325 325 326 327 326 323 321 313 298 284 277 270 262 257 250 247 246 243 246 252 245 235 233 229 220
289 289 289 291 292 294 296 299 302 305 310 315 319 322 324 326 326 326 328 330 331 331 327 323 317 304 290 282 272 262 254 249 248 249 245 245 250 247 237 233 233 230
292 291 290 291 293 294 297 299 303 307 312 317 321 323 324 325 327 328 331 334 335 335 329 321 316 309 298 289 276 261 251 248 249 249 248 247 249 249 242 234 234 233
293 292 291 291 292 294 297 300 304 308 313 318 321 322 323 325 328 331 334 336 338 338 332 320 313 312 302 290 279 266 255 249 248 247 247 249 253 255 251 241 235 233
292 291 291 291 292 295 298 301 305 310 314 318 320 322 323 325 328 331 334 337 339 340 336 322 312 311 305 289 276 269 264 256 251 250 250 253 258 260 256 246 237 233
291 290 289 290 292 295 298 301 305 310 314 318 321 322 324 326 329 330 333 336 339 341 338 326 310 307 304 287 266 261 272 273 262 258 258 257 259 261 257 247 239 235
290 289 288 289 292 295 298 301 304 309 314 318 321 322 324 327 329 330 332 335 339 343 341 331 314 302 294 274 252 256 276 284 275 265 262 261 261 261 256 247 240 238
291 290 288 289 291 294 297 300 304 309 314 318 320 322 323 326 328 330 331 334 339 343 343 336 322 304 291 276 265 268 276 283 279 267 262 261 260 258 255 248 243 242
291 289 288 288 290 293 296 299 304 309 314 317 319 320 322 325 328 329 330 333 337 341 342 339 329 309 292 281 274 273 274 275 272 265 261 261 261 259 255 249 246 246
290 287 286 287 289 293 295 298 303 308 313 316 318 319 321 324 326 328 330 331 334 338 341 340 334 317 297 286 280 277 276 273 267 261 261 262 262 260 256 252 249 248
288 286 286 287 289 292 294 298 302 307 311 314 316 317 321 324 325 326 329 330 331 334 337 338 336 327 311 296 286 278 275 272 265 260 261 264 265 263 261 257 252 247
286 285 285 286 288 290 293 297 302 305 310 313 315 317 320 323 324 325 327 329 328 330 333 334 335 332 322 307 292 280 271 266 264 262 262 265 265 262 259 258 254 251
285 285 285 286 287 289 292 297 301 305 309 313 315 317 320 323 324 324 326 329 328 326 329 330 330 331 327 311 291 279 271 265 265 264 262 261 263 260 256 253 252 252
285 285 285 285 286 288 292 296 300 304 308 312 314 315 318 321 322 323 326 329 328 325 325 326 326 327 325 313 293 283 280 273 268 265 262 260 262 261 258 254 250 249
284 284 283 284 285 288 292 295 300 304 307 310 312 313 315 318 320 322 325 328 328 327 325 324 324 324 322 318 309 299 290 281 274 268 264 263 262 260 259 256 252 250
283 283 283 284 286 289 292 296 299 303 306 309 310 310 312 314 316 318 321 325 327 327 327 324 324 324 320 320 324 316 300 289 284 276 268 263 261 259 258 258 257 255
281 282 284 286 288 290 293 296 299 302 306 308 308 307 307 309 310 311 315 320 323 325 325 323 323 324 319 316 323 325 314 301 291 280 270 264 261 259 258 259 261 260
281 283 285 287 289 291 294 296 299 301 303 305 304 303 304 304 305 306 308 313 317 319 320 319 319 323 320 313 313 323 327 320 305 286 273 270 266 263 262 262 262 263
283 283 285 286 289 291 293 295 298 300 300 301 300 299 299 300 299 299 301 306 311 313 314 314 315 319 319 314 313 321 327 326 319 303 286 283 280 273 269 267 264 264
284 284 285 286 288 290 293 295 297 298 298 297 296 295 295 295 295 295 296 301 306 309 311 311 311 314 315 313 314 320 321 321 323 314 294 281 277 274 271 267 266 265
284 284 285 286 287 289 292 295 297 298 297 295 293 292 292 293 293 293 294 298 302 305 307 307 307 308 309 307 307 312 315 315 316 315 299 278 267 267 267 264 261 256
283 285 285 286 287 288 291 294 296 298 297 294 291 290 291 292 292 292 294 298 301 303 304 305 304 302 301 300 299 301 306 309 310 312 308 293 275 263 256 251 249 246
281 283 285 285 286 287 289 292 294 296 297 295 292 290 290 291 291 292 296 301 303 303 302 301 300 298 295 294 294 295 297 301 303 305 306 304 292 275 261 254 249 248